SCP
0 0 0 0 0 0 0 0 0 0 0 0 0 -0 -0 0 0 0 0 0 0 0 0 0 0 0 0 0 0 0 0 0 0 0 0 0 0 0 0 0 0 0 0
0 0 0 0 0 0 0 0 0 0 0 0 -0 -0 0 0 0 0 0 0 0 0 0 0 0 0 0 0 0 0 0 0 0 0 0 0 0 0 0 0 0 0 0
0 0 0 0 0 0 0 0 -0 -0 -0 -0 0 0 0 0 0 0 0 0 0 0 0 0 0 0 0 0 0 0 0 0 0 0 0 0 0 0 0 0 0 0 0
0 0 0 0 0 -0 -0 -0 -0 -0 0 0 0 0 0 0 0 0 0 0 0 0 0 0 0 0 0 0 0 0 0 0 0 0 0 0 0 0 0 0 0 0 0
0 0 0 0 0 -0 -0 -0 0 0 0 0 0 0 0 0 0 0 0 0 0 0 0 0 0 0 0 0 0 0 0 0 0 0 0 0 0 0 0 0 0 0 0
0 0 0 0 0 0 0 0 0 0 0 0 0 0 0 0 0 0 0 0 0 0 0 0 0 0 0 0 0 0 0 0 0 0 0 0 0 0 0 0 0 0 0
0 0 0 0 0 0 0 0 0 0 0 0 0 0 0 0 0 0 0 0 0 0 0 0 0 0 0 0 0 0 0 0 0 0 0 0 0 0 0 0 0 0 0
0 0 0 0 0 0 0 0 0 0 0 0 0 0 0 0 0 0 0 0 0 0 0 0 0 0 0 0 0 0 0 0 0 0 0 0 0 0 0 0 0 0 0
0 0 0 0 0 0 0 0 0 0 0 0 0 0 0 0 0 0 0 0 0 0 0 0 0 0 0 0 0 0 0 0 0 0 0 0 0 0 0 0 0 0 0
0 0 0 0 0 0 0 0 0 0 0 0 0 0 0 0 0 0 0 0 0 0 0 0 0 0 0 0 0 0 0 0 0 0 0 0 0 0 0 0 0 0 0
0 0 0 0 0 0 0 0 0 0 0 0 0 0 0 0 0 0 0 0 0 0 0 0 0 0 0 0 0 0 0 0 0 0 0 0 0 0 0 0 0 0 0
0 0 0 0 0 0 0 0 0 0 0 0 0 0 0 0 0 0 0 0 0 0 0 0 0 0 0 0 0 0 0 0 0 0 0 0 0 0 0 0 0 0 0
0 0 0 0 0 0 0 0 0 0 0 0 0 0 0 0 0 0 0 0 0 0 0 0 0 0 0 0 0 0 0 0 0 0 0 0 0 0 0 0 0 0 0
0 0 0 0 0 0 0 0 0 0 0 0 0 0 0 0 0 0 0 0 0 0 0 0 0 0 0 0 0 0 0 0 0 0 0 0 0 0 0 0 0 0 0
0 0 0 0 0 0 0 0 0 0 0 0 0 0 0 0 0 0 0 0 0 0 0 0 0 0 0 0 0 0 0 0 0 0 0 0 0 0 0 0 0 0 0
0 0 0 0 0 0 0 0 0 0 0 0 0 0 0 0 0 0 0 0 0 0 0 0 0 0 0 0 0 0 0 0 0 0 0 0 0 0 0 0 0 0 0
0 0 0 0 0 0 0 0 0 0 0 0 0 0 0 0 0 0 0 0 0 0 0 0 0 0 0 0 0 0 0 0 0 0 0 0 0 0 0 0 0 0 0
0 0 0 0 0 0 0 0 0 0 0 0 0 0 0 0 0 0 0 0 0 0 0 0 0 0 0 0 0 0 0 0 0 0 0 0 0 0 0 0 0 0 0
0 0 0 0 0 0 0 0 0 0 0 0 0 0 0 0 0 0 0 0 0 0 0 0 0 0 0 0 0 0 0 0 0 0 0 0 0 0 0 0 0 0 0
0 0 0 0 0 0 0 0 0 0 0 0 0 0 0 0 0 0 0 0 0 0 0 0 0 0 0 0 0 0 0 0 0 0 0 0 0 0 0 0 0 0 0
0 0 0 0 0 0 0 0 0 0 0 0 0 0 0 0 0 0 0 0 0 0 0 0 0 0 0 0 0 0 0 0 0 0 0 0 0 0 0 0 0 0 0
0 0 0 0 0 0 0 0 0 0 0 0 0 0 0 0 0 0 0 0 0 0 0 0 0 0 0 0 0 0 0 0 0 0 0 0 0 0 0 0 0 0 0
0 0 0 0 0 0 0 0 0 0 0 0 0 0 0 0 0 0 0 0 0 0 0 0 0 0 0 0 0 0 0 0 0 0 0 0 0 0 0 0 0 0 0
0 0 0 0 0 0 0 0 0 0 0 0 0 0 0 0 0 0 0 0 0 0 0 0 0 0 0 0 0 0 0 0 0 0 0 0 0 0 0 0 0 0 0
0 0 0 0 0 0 0 0 0 0 0 0 0 0 0 0 0 0 0 0 0 0 0 0 0 0 0 0 0 0 0 0 0 0 0 0 0 0 0 0 0 0 0
0 0 0 0 0 0 0 0 0 0 0 0 0 0 0 0 0 0 0 0 0 0 0 0 0 0 0 0 0 0 0 0 0 0 0 0 0 0 0 0 0 -0 -0
Wind_Speed_500mb
10 9 13 14 14 16 18 21 17 29 14 25 15 22 15 15 11 11 15 18 24 28 32 35 38 42 46 50 53 53 54 53 55 55 38 43 19 17 23 36 44 43 42
21 17 14 15 13 11 11 8 7 12 18 19 21 21 15 8 6 17 26 33 39 36 35 36 39 43 46 48 50 50 52 53 53 46 32 20 23 23 20 26 44 49 47
38 36 27 23 38 45 41 34 30 27 24 19 15 12 9 6 17 25 29 32 35 31 33 37 41 44 46 45 48 51 52 49 45 40 23 19 16 29 23 24 43 39 47
30 26 40 43 41 40 39 35 29 24 20 14 7 2 5 11 20 20 25 28 28 31 37 38 38 38 43 47 48 47 45 43 31 30 25 29 28 20 30 29 37 42 37
27 39 39 36 35 31 29 26 23 15 10 7 7 9 12 12 14 17 24 29 33 35 33 32 36 39 40 40 42 43 41 37 33 23 25 28 22 23 21 38 35 38 38
37 36 33 29 28 27 25 23 20 16 13 9 8 10 9 11 16 25 31 33 32 27 31 35 36 36 39 42 43 39 37 34 31 29 25 23 25 31 32 40 45 43 43
38 37 36 30 26 26 23 18 16 11 7 6 9 12 13 19 27 30 31 31 30 34 38 39 38 40 40 40 40 39 38 36 33 30 29 32 37 40 43 45 44 46 48
40 35 29 26 25 20 19 18 12 11 8 7 11 12 20 24 29 33 33 31 38 38 42 41 43 42 41 41 45 44 39 33 31 30 34 37 38 42 50 50 46 48 56
34 29 26 27 24 21 20 15 11 8 5 8 14 21 20 25 30 31 32 37 42 43 42 44 46 45 41 46 48 47 37 33 33 34 37 40 45 48 46 42 31 35 52
25 27 25 26 25 22 17 14 6 5 10 15 19 17 24 31 35 40 41 42 44 46 45 46 47 45 45 45 45 43 35 36 32 36 40 40 42 41 41 43 48 41 52
22 23 25 25 23 19 13 7 6 10 17 21 21 25 33 40 40 42 45 44 45 44 44 44 47 49 48 46 47 38 32 28 33 36 38 39 42 50 54 55 49 43 44
27 28 27 24 18 12 6 3 11 15 21 19 24 29 33 41 46 42 37 42 49 49 47 46 47 50 47 45 49 30 23 27 31 36 39 46 54 57 48 42 42 41 42
33 28 23 16 9 5 3 8 18 14 16 21 29 38 45 43 38 34 42 48 55 53 47 47 47 49 48 47 52 23 21 27 32 40 48 58 57 46 41 43 44 45 46
29 22 14 10 9 6 4 14 9 14 23 32 40 40 34 30 33 42 49 54 53 49 47 44 43 46 47 53 17 16 30 29 37 49 57 57 50 46 46 47 47 47 46
24 17 14 12 8 4 7 6 14 23 32 37 35 32 28 36 41 47 51 53 48 51 49 43 37 34 23 17 20 28 27 35 49 55 56 55 55 59 57 46 45 44 48
21 19 17 12 8 8 6 13 22 30 35 34 33 33 37 42 45 49 52 47 48 46 33 31 28 17 18 21 21 24 34 47 53 53 54 56 58 50 51 49 44 40 41
23 21 15 10 10 7 12 22 29 33 35 34 36 38 40 45 46 46 48 47 43 38 35 28 22 24 21 19 25 36 45 46 47 50 53 54 46 43 36 35 32 35 41
25 22 18 15 9 11 18 26 32 35 36 38 40 43 43 44 44 43 49 45 43 40 39 27 23 23 20 26 34 43 42 43 45 48 48 45 40 36 35 35 42 38 42
24 19 16 13 9 12 23 31 34 35 38 42 44 46 44 43 44 51 52 46 47 41 35 27 22 19 25 33 41 41 41 42 46 47 43 41 36 37 32 40 44 40 38
21 20 17 10 10 20 28 33 35 37 40 43 47 50 47 45 45 52 49 47 46 31 22 22 22 21 29 36 38 37 40 44 46 39 40 40 37 36 37 39 40 40 38
22 19 11 9 18 26 31 34 36 39 44 49 52 51 48 48 49 48 48 48 31 29 25 19 20 29 35 34 33 34 37 40 38 37 39 37 43 38 37 34 31 36 43
18 12 10 17 24 29 33 35 39 45 49 52 53 50 49 50 38 34 38 27 21 22 22 22 28 33 32 30 31 31 34 39 36 40 40 43 43 41 37 34 33 34 34
18 11 16 22 27 30 34 39 42 48 52 54 51 44 45 40 32 32 26 23 21 21 22 27 30 30 28 29 29 33 34 36 37 39 42 41 38 39 34 32 33 31 31
11 15 21 26 27 32 37 42 47 53 56 49 41 38 40 37 26 29 23 23 23 28 31 30 31 29 28 29 30 31 35 35 37 38 39 38 35 34 32 31 30 29 32
16 21 26 28 32 36 41 46 51 53 46 45 40 35 35 27 26 25 25 31 38 39 35 31 29 26 28 27 29 30 31 34 38 38 36 34 32 31 32 29 30 31 32
19 24 27 32 35 41 47 50 45 40 39 41 38 37 36 30 28 29 32 32 33 29 27 25 28 30 30 30 29 30 30 31 34 36 35 33 32 31 32 32 32 33 34
Wind_Direction_500mb
229 241 261 258 252 230 233 242 238 293 273 273 158 135 154 114 81 39 10 351 339 327 322 322 320 318 316 316 317 318 319 321 323 326 315 319 306 264 254 271 279 282 285
126 123 113 89 81 110 133 165 107 133 122 132 125 141 145 116 4 344 344 339 337 332 328 320 315 314 314 316 319 323 326 326 326 324 322 314 294 284 259 276 292 292 292
127 122 116 108 109 105 103 104 105 107 114 126 141 143 150 341 341 333 327 324 319 316 314 314 315 318 321 324 326 328 328 326 323 320 314 309 291 306 286 299 297 299 301
144 132 124 118 113 109 110 115 117 120 128 135 146 211 288 293 314 309 306 314 308 313 313 315 318 323 325 327 328 328 325 321 316 312 301 292 287 293 296 292 298 298 305
155 141 133 134 137 135 133 130 130 142 148 171 223 266 285 291 306 308 317 316 313 313 314 321 326 325 324 325 326 327 328 328 324 311 305 303 297 291 280 301 305 299 302
157 153 154 155 157 163 166 163 166 172 197 218 259 289 308 326 335 325 321 316 313 314 320 326 326 327 328 326 322 319 319 319 319 311 303 298 298 298 294 294 298 294 300
172 174 180 180 179 185 193 187 192 205 239 288 308 320 323 330 326 328 326 322 313 316 323 325 323 321 314 310 312 311 308 307 303 303 302 303 301 302 299 298 294 297 298
189 192 197 196 197 212 200 204 216 242 270 292 305 316 325 324 325 330 328 325 330 321 319 318 309 300 302 312 312 304 304 300 300 303 308 306 307 303 302 297 299 298 296
196 199 208 211 214 213 205 216 229 239 282 309 328 330 331 328 325 326 324 321 321 317 309 307 304 301 306 315 313 299 295 294 298 302 303 301 301 299 299 302 298 296 296
203 209 216 207 203 196 194 189 195 278 299 307 308 308 314 317 319 317 315 303 300 302 302 306 303 299 294 307 309 292 288 292 293 298 300 299 298 297 297 294 292 289 287
190 184 174 170 169 169 172 190 254 298 312 323 312 307 312 318 318 313 310 307 311 312 306 305 300 296 292 297 296 275 285 285 297 300 298 298 296 298 298 295 293 290 286
170 159 156 159 165 175 202 291 326 322 318 314 314 316 319 316 315 317 314 316 317 316 311 302 292 291 287 295 288 272 270 291 298 298 297 301 303 303 301 299 297 294 291
160 161 168 174 175 184 231 323 323 308 323 327 321 315 315 319 319 314 316 320 321 319 310 304 298 293 297 303 290 268 277 294 288 298 304 308 307 304 301 302 299 297 293
168 175 179 188 193 217 296 313 308 327 324 317 316 318 321 315 314 318 321 325 326 321 313 304 303 304 300 295 263 272 293 289 297 305 307 307 306 303 303 301 298 296 290
175 182 190 187 192 250 278 293 318 318 318 320 322 324 314 315 319 319 325 328 325 321 314 312 309 308 317 301 292 293 294 300 307 310 309 310 307 304 300 296 294 291 290
186 190 186 195 222 212 258 306 315 319 321 323 322 318 318 319 319 319 325 328 324 320 314 308 312 327 313 304 299 303 304 310 310 310 315 314 311 309 306 303 301 294 291
198 193 201 220 199 235 300 310 316 320 321 318 319 317 313 312 315 317 322 324 322 324 313 320 305 305 298 298 307 310 311 311 314 318 318 316 315 317 314 312 317 313 305
203 203 208 198 216 276 301 313 318 319 319 321 322 320 314 309 310 311 318 319 317 309 308 299 299 296 293 304 309 312 313 316 319 321 322 321 319 317 320 316 312 306 302
202 203 198 207 239 294 312 315 317 320 321 321 323 325 323 316 311 312 313 316 316 311 300 287 289 285 300 307 312 314 317 321 323 325 327 325 318 315 323 313 312 311 311
195 193 194 223 288 310 314 317 320 320 320 323 327 325 321 314 309 311 314 314 316 315 304 285 282 288 301 309 310 314 319 322 326 327 327 327 324 323 318 314 312 315 317
186 188 206 271 304 313 317 319 317 318 320 322 323 321 318 311 306 307 310 312 304 293 292 279 285 300 307 308 310 315 318 323 324 325 328 328 329 327 320 316 317 313 312
180 206 261 300 313 318 319 317 317 318 319 320 320 319 318 318 314 315 318 323 304 288 286 279 293 302 305 307 312 315 316 322 322 328 330 332 335 333 329 328 321 316 319
195 238 287 307 318 317 317 316 316 316 317 317 317 318 324 326 317 316 312 314 305 290 278 285 298 305 306 310 312 314 317 322 328 331 332 333 336 340 339 336 331 332 329
228 270 300 310 316 316 315 314 316 315 314 313 316 317 324 323 313 321 304 299 298 292 288 291 297 299 306 309 311 312 316 324 331 334 337 339 341 342 342 344 345 348 342
264 291 306 314 317 316 315 316 314 310 309 315 315 314 321 316 313 316 308 304 304 304 281 286 291 296 303 305 307 308 313 322 327 334 338 339 343 347 351 353 356 359 360
282 304 311 314 316 318 318 317 313 310 312 316 316 310 313 303 303 305 307 309 323 304 290 285 287 293 299 300 301 303 309 316 325 333 335 339 343 346 348 351 355 358 2
Wind_Speed_850mb
10 9 13 14 14 16 18 21 17 29 14 25 15 22 15 15 11 11 15 18 24 28 32 35 38 42 46 50 53 53 54 53 55 55 38 43 19 17 23 36 44 43 42
21 17 14 15 13 11 11 8 7 12 18 19 21 21 15 8 6 17 26 33 39 36 35 36 39 43 46 48 50 50 52 53 53 46 32 20 23 23 20 26 44 49 47
38 36 27 23 38 45 41 34 30 27 24 19 15 12 9 6 17 25 29 32 35 31 33 37 41 44 46 45 48 51 52 49 45 40 23 19 16 29 23 24 43 39 47
30 26 40 43 41 40 39 35 29 24 20 14 7 2 5 11 20 20 25 28 28 31 37 38 38 38 43 47 48 47 45 43 31 30 25 29 28 20 30 29 37 42 37
27 39 39 36 35 31 29 26 23 15 10 7 7 9 12 12 14 17 24 29 33 35 33 32 36 39 40 40 42 43 41 37 33 23 25 28 22 23 21 38 35 38 38
37 36 33 29 28 27 25 23 20 16 13 9 8 10 9 11 16 25 31 33 32 27 31 35 36 36 39 42 43 39 37 34 31 29 25 23 25 31 32 40 45 43 43
38 37 36 30 26 26 23 18 16 11 7 6 9 12 13 19 27 30 31 31 30 34 38 39 38 40 40 40 40 39 38 36 33 30 29 32 37 40 43 45 44 46 48
40 35 29 26 25 20 19 18 12 11 8 7 11 12 20 24 29 33 33 31 38 38 42 41 43 42 41 41 45 44 39 33 31 30 34 37 38 42 50 50 46 48 56
34 29 26 27 24 21 20 15 11 8 5 8 14 21 20 25 30 31 32 37 42 43 42 44 46 45 41 46 48 47 37 33 33 34 37 40 45 48 46 42 31 35 52
25 27 25 26 25 22 17 14 6 5 10 15 19 17 24 31 35 40 41 42 44 46 45 46 47 45 45 45 45 43 35 36 32 36 40 40 42 41 41 43 48 41 52
22 23 25 25 23 19 13 7 6 10 17 21 21 25 33 40 40 42 45 44 45 44 44 44 47 49 48 46 47 38 32 28 33 36 38 39 42 50 54 55 49 43 44
27 28 27 24 18 12 6 3 11 15 21 19 24 29 33 41 46 42 37 42 49 49 47 46 47 50 47 45 49 30 23 27 31 36 39 46 54 57 48 42 42 41 42
33 28 23 16 9 5 3 8 18 14 16 21 29 38 45 43 38 34 42 48 55 53 47 47 47 49 48 47 52 23 21 27 32 40 48 58 57 46 41 43 44 45 46
29 22 14 10 9 6 4 14 9 14 23 32 40 40 34 30 33 42 49 54 53 49 47 44 43 46 47 53 17 16 30 29 37 49 57 57 50 46 46 47 47 47 46
24 17 14 12 8 4 7 6 14 23 32 37 35 32 28 36 41 47 51 53 48 51 49 43 37 34 23 17 20 28 27 35 49 55 56 55 55 59 57 46 45 44 48
21 19 17 12 8 8 6 13 22 30 35 34 33 33 37 42 45 49 52 47 48 46 33 31 28 17 18 21 21 24 34 47 53 53 54 56 58 50 51 49 44 40 41
23 21 15 10 10 7 12 22 29 33 35 34 36 38 40 45 46 46 48 47 43 38 35 28 22 24 21 19 25 36 45 46 47 50 53 54 46 43 36 35 32 35 41
25 22 18 15 9 11 18 26 32 35 36 38 40 43 43 44 44 43 49 45 43 40 39 27 23 23 20 26 34 43 42 43 45 48 48 45 40 36 35 35 42 38 42
24 19 16 13 9 12 23 31 34 35 38 42 44 46 44 43 44 51 52 46 47 41 35 27 22 19 25 33 41 41 41 42 46 47 43 41 36 37 32 40 44 40 38
21 20 17 10 10 20 28 33 35 37 40 43 47 50 47 45 45 52 49 47 46 31 22 22 22 21 29 36 38 37 40 44 46 39 40 40 37 36 37 39 40 40 38
22 19 11 9 18 26 31 34 36 39 44 49 52 51 48 48 49 48 48 48 31 29 25 19 20 29 35 34 33 34 37 40 38 37 39 37 43 38 37 34 31 36 43
18 12 10 17 24 29 33 35 39 45 49 52 53 50 49 50 38 34 38 27 21 22 22 22 28 33 32 30 31 31 34 39 36 40 40 43 43 41 37 34 33 34 34
18 11 16 22 27 30 34 39 42 48 52 54 51 44 45 40 32 32 26 23 21 21 22 27 30 30 28 29 29 33 34 36 37 39 42 41 38 39 34 32 33 31 31
11 15 21 26 27 32 37 42 47 53 56 49 41 38 40 37 26 29 23 23 23 28 31 30 31 29 28 29 30 31 35 35 37 38 39 38 35 34 32 31 30 29 32
16 21 26 28 32 36 41 46 51 53 46 45 40 35 35 27 26 25 25 31 38 39 35 31 29 26 28 27 29 30 31 34 38 38 36 34 32 31 32 29 30 31 32
19 24 27 32 35 41 47 50 45 40 39 41 38 37 36 30 28 29 32 32 33 29 27 25 28 30 30 30 29 30 30 31 34 36 35 33 32 31 32 32 32 33 34
Wind_Direction_850mb
229 241 261 258 252 230 233 242 238 293 273 273 158 135 154 114 81 39 10 351 339 327 322 322 320 318 316 316 317 318 319 321 323 326 315 319 306 264 254 271 279 282 285
126 123 113 89 81 110 133 165 107 133 122 132 125 141 145 116 4 344 344 339 337 332 328 320 315 314 314 316 319 323 326 326 326 324 322 314 294 284 259 276 292 292 292
127 122 116 108 109 105 103 104 105 107 114 126 141 143 150 341 341 333 327 324 319 316 314 314 315 318 321 324 326 328 328 326 323 320 314 309 291 306 286 299 297 299 301
144 132 124 118 113 109 110 115 117 120 128 135 146 211 288 293 314 309 306 314 308 313 313 315 318 323 325 327 328 328 325 321 316 312 301 292 287 293 296 292 298 298 305
155 141 133 134 137 135 133 130 130 142 148 171 223 266 285 291 306 308 317 316 313 313 314 321 326 325 324 325 326 327 328 328 324 311 305 303 297 291 280 301 305 299 302
157 153 154 155 157 163 166 163 166 172 197 218 259 289 308 326 335 325 321 316 313 314 320 326 326 327 328 326 322 319 319 319 319 311 303 298 298 298 294 294 298 294 300
172 174 180 180 179 185 193 187 192 205 239 288 308 320 323 330 326 328 326 322 313 316 323 325 323 321 314 310 312 311 308 307 303 303 302 303 301 302 299 298 294 297 298
189 192 197 196 197 212 200 204 216 242 270 292 305 316 325 324 325 330 328 325 330 321 319 318 309 300 302 312 312 304 304 300 300 303 308 306 307 303 302 297 299 298 296
196 199 208 211 214 213 205 216 229 239 282 309 328 330 331 328 325 326 324 321 321 317 309 307 304 301 306 315 313 299 295 294 298 302 303 301 301 299 299 302 298 296 296
203 209 216 207 203 196 194 189 195 278 299 307 308 308 314 317 319 317 315 303 300 302 302 306 303 299 294 307 309 292 288 292 293 298 300 299 298 297 297 294 292 289 287
190 184 174 170 169 169 172 190 254 298 312 323 312 307 312 318 318 313 310 307 311 312 306 305 300 296 292 297 296 275 285 285 297 300 298 298 296 298 298 295 293 290 286
170 159 156 159 165 175 202 291 326 322 318 314 314 316 319 316 315 317 314 316 317 316 311 302 292 291 287 295 288 272 270 291 298 298 297 301 303 303 301 299 297 294 291
160 161 168 174 175 184 231 323 323 308 323 327 321 315 315 319 319 314 316 320 321 319 310 304 298 293 297 303 290 268 277 294 288 298 304 308 307 304 301 302 299 297 293
168 175 179 188 193 217 296 313 308 327 324 317 316 318 321 315 314 318 321 325 326 321 313 304 303 304 300 295 263 272 293 289 297 305 307 307 306 303 303 301 298 296 290
175 182 190 187 192 250 278 293 318 318 318 320 322 324 314 315 319 319 325 328 325 321 314 312 309 308 317 301 292 293 294 300 307 310 309 310 307 304 300 296 294 291 290
186 190 186 195 222 212 258 306 315 319 321 323 322 318 318 319 319 319 325 328 324 320 314 308 312 327 313 304 299 303 304 310 310 310 315 314 311 309 306 303 301 294 291
198 193 201 220 199 235 300 310 316 320 321 318 319 317 313 312 315 317 322 324 322 324 313 320 305 305 298 298 307 310 311 311 314 318 318 316 315 317 314 312 317 313 305
203 203 208 198 216 276 301 313 318 319 319 321 322 320 314 309 310 311 318 319 317 309 308 299 299 296 293 304 309 312 313 316 319 321 322 321 319 317 320 316 312 306 302
202 203 198 207 239 294 312 315 317 320 321 321 323 325 323 316 311 312 313 316 316 311 300 287 289 285 300 307 312 314 317 321 323 325 327 325 318 315 323 313 312 311 311
195 193 194 223 288 310 314 317 320 320 320 323 327 325 321 314 309 311 314 314 316 315 304 285 282 288 301 309 310 314 319 322 326 327 327 327 324 323 318 314 312 315 317
186 188 206 271 304 313 317 319 317 318 320 322 323 321 318 311 306 307 310 312 304 293 292 279 285 300 307 308 310 315 318 323 324 325 328 328 329 327 320 316 317 313 312
180 206 261 300 313 318 319 317 317 318 319 320 320 319 318 318 314 315 318 323 304 288 286 279 293 302 305 307 312 315 316 322 322 328 330 332 335 333 329 328 321 316 319
195 238 287 307 318 317 317 316 316 316 317 317 317 318 324 326 317 316 312 314 305 290 278 285 298 305 306 310 312 314 317 322 328 331 332 333 336 340 339 336 331 332 329
228 270 300 310 316 316 315 314 316 315 314 313 316 317 324 323 313 321 304 299 298 292 288 291 297 299 306 309 311 312 316 324 331 334 337 339 341 342 342 344 345 348 342
264 291 306 314 317 316 315 316 314 310 309 315 315 314 321 316 313 316 308 304 304 304 281 286 291 296 303 305 307 308 313 322 327 334 338 339 343 347 351 353 356 359 360
282 304 311 314 316 318 318 317 313 310 312 316 316 310 313 303 303 305 307 309 323 304 290 285 287 293 299 300 301 303 309 316 325 333 335 339 343 346 348 351 355 358 2